Jamestown, ND

12:46 PM CDT on April 26, 2017 (GMT -0500)
Jamestown Municipal

Weather History for KJMS - October, 2012

Change the Weather History Date:

Sunday, October 7, 2012

  Actual Average Record
Temperature  
Mean Temperature 44 °F 48 °F  
Max Temperature 56 °F 60 °F 86 °F (1966)
Min Temperature 31 °F 36 °F 15 °F (1976)
Degree Days  
Heating Degree Days 21 17  
Month to date heating degree days 152 109  
Since 1 July heating degree days 416 427  
Cooling Degree Days 0 0  
Month to date cooling degree days 0 0  
Year to date cooling degree days 575 445  
Moisture  
Dew Point 26 °F    
Average Humidity 50    
Maximum Humidity 70    
Minimum Humidity 30    
Precipitation  
Precipitation 0.00 in 0.06 in 1.07 in (1901)
Month to date precipitation 0.26 0.42  
Year to date precipitation 11.27 16.61  
Sea Level Pressure  
Sea Level Pressure 29.94 in    
Wind  
Wind Speed 9 mph (WSW)    
Max Wind Speed 16 mph    
Max Gust Speed 21 mph    
Visibility 10 miles    
Events      
T = Trace of Precipitation, MM = Missing Value Source: NWS Daily Summary

Daily Weather History Graph

Daily Weather History Graph

Search for Another Location

Airport or City:

Trip Planner

Search our weather history database for the weather conditions in past years. The results will help you decide how hot, cold, wet, or windy it might be!

Date:

Astronomy

Oct. 07, 2012 Rise Set
Actual Time 7:42 AM CDT 7:01 PM CDT
Civil Twilight 7:11 AM CDT 7:31 PM CDT
Nautical Twilight 6:36 AM CDT 8:07 PM CDT
Astronomical Twilight 6:01 AM CDT 8:42 PM CDT
Moon 11:59 PM CDT (10/7) 2:36 PM CDT (10/7)
Length of Visible Light 12h 20m
Length of Day
11h 19m
Waning Gibbous, 56% of the Moon is Illuminated
Oct 7
Waning Gibbous
Oct 8
Last Quarter
Oct 15
New
Oct 21
First Quarter
Oct 29
Full

Hourly Weather History & Observations

Time (CDT) Temp. Windchill Dew Point Humidity Pressure Visibility Wind Dir Wind Speed Gust Speed Precip Events Conditions
12:56 AM 32.0 °F 24.2 °F 21.0 °F 64% 30.16 in 10.0 mi SW 9.2 mph - N/A   Clear
1:56 AM 32.0 °F 24.8 °F 21.0 °F 64% 30.14 in 10.0 mi SW 8.1 mph - N/A   Clear
2:56 AM 32.0 °F 24.2 °F 21.9 °F 66% 30.12 in 10.0 mi SW 9.2 mph - N/A   Clear
3:56 AM 34.0 °F 25.0 °F 23.0 °F 64% 30.08 in 10.0 mi SW 12.7 mph - N/A   Clear
4:56 AM 34.0 °F 25.0 °F 21.9 °F 61% 30.06 in 10.0 mi WSW 12.7 mph - N/A   Clear
5:56 AM 33.1 °F 23.9 °F 21.9 °F 64% 30.04 in 10.0 mi WSW 12.7 mph - N/A   Clear
6:56 AM 32.0 °F 23.0 °F 21.9 °F 66% 30.02 in 10.0 mi WSW 11.5 mph - N/A   Clear
7:56 AM 30.9 °F 22.8 °F 21.9 °F 69% 30.01 in 10.0 mi WSW 9.2 mph - N/A   Overcast
8:56 AM 34.0 °F 27.2 °F 23.0 °F 64% 29.99 in 10.0 mi WSW 8.1 mph - N/A   Overcast
9:56 AM 39.9 °F 32.5 °F 25.0 °F 55% 29.97 in 10.0 mi WSW 12.7 mph - N/A   Mostly Cloudy
10:56 AM 42.1 °F 35.7 °F 25.0 °F 51% 29.96 in 10.0 mi WSW 11.5 mph - N/A   Overcast
11:56 AM 45.0 °F 40.1 °F 26.1 °F 48% 29.94 in 10.0 mi WSW 9.2 mph - N/A   Overcast
12:56 PM 50.0 °F - 26.1 °F 39% 29.92 in 10.0 mi WSW 11.5 mph - N/A   Overcast
1:56 PM 54.0 °F - 25.0 °F 33% 29.89 in 10.0 mi West 11.5 mph - N/A   Scattered Clouds
2:56 PM 55.0 °F - 25.0 °F 31% 29.86 in 10.0 mi West 15.0 mph 20.7 mph N/A   Clear
3:56 PM 55.9 °F - 26.1 °F 32% 29.85 in 10.0 mi West 9.2 mph - N/A   Clear
4:56 PM 55.0 °F - 28.0 °F 35% 29.83 in 10.0 mi West 9.2 mph - N/A   Clear
5:56 PM 54.0 °F - 28.0 °F 37% 29.83 in 10.0 mi NW 13.8 mph - N/A   Clear
6:56 PM 46.9 °F - 30.0 °F 52% 29.83 in 10.0 mi NNW 4.6 mph - N/A   Scattered Clouds
7:56 PM 46.9 °F - 30.0 °F 52% 29.83 in 10.0 mi Calm Calm - N/A   Overcast
8:56 PM 42.1 °F - 30.0 °F 62% 29.82 in 10.0 mi Calm Calm - N/A   Clear
9:56 PM 42.1 °F - 32.0 °F 67% 29.80 in 10.0 mi Calm Calm - N/A   Overcast
10:56 PM 43.0 °F 41.3 °F 33.1 °F 68% 29.78 in 10.0 mi SSW 3.5 mph - N/A   Overcast
11:56 PM 46.0 °F 41.4 °F 33.1 °F 61% 29.76 in 10.0 mi West 9.2 mph - N/A   Overcast